Total_Precipitation_Accumulation
0.03 0.04 0.15 0.19 0.18 0.17 0.24 0.33 0.34 0.30 0.34 0.44 0.44 0.39 0.36 0.22 0.16 0.15 0.16 0.17 0.24 0.35 0.34 0.30 0.28 0.24 0.18 0.18 0.22 0.27 0.34 0.42 0.46 0.49 0.56 0.58 0.54 0.54 0.61 0.66 0.64 0.77 0.52
0.03 0.03 0.14 0.18 0.15 0.13 0.17 0.25 0.30 0.30 0.32 0.38 0.40 0.40 0.29 0.18 0.14 0.13 0.15 0.16 0.19 0.24 0.26 0.29 0.32 0.27 0.22 0.24 0.29 0.31 0.34 0.39 0.47 0.49 0.60 0.59 0.52 0.54 0.50 0.47 0.52 0.65 0.48
0.06 0.05 0.11 0.18 0.13 0.10 0.12 0.21 0.29 0.33 0.37 0.42 0.44 0.44 0.22 0.11 0.11 0.12 0.15 0.18 0.20 0.16 0.17 0.24 0.31 0.30 0.25 0.29 0.35 0.36 0.37 0.39 0.45 0.48 0.73 0.95 0.60 0.56 0.57 0.58 0.54 0.47 0.47
0.12 0.11 0.17 0.22 0.19 0.15 0.17 0.27 0.35 0.40 0.45 0.53 0.52 0.37 0.14 0.09 0.12 0.15 0.20 0.24 0.19 0.12 0.12 0.16 0.23 0.24 0.22 0.27 0.33 0.31 0.37 0.41 0.47 0.51 0.75 1.02 0.85 0.77 0.74 0.71 0.62 0.45 0.48
0.14 0.18 0.33 0.33 0.29 0.25 0.26 0.36 0.46 0.51 0.48 0.54 0.51 0.27 0.13 0.11 0.12 0.18 0.25 0.21 0.14 0.11 0.09 0.10 0.15 0.16 0.17 0.18 0.24 0.28 0.34 0.43 0.56 0.59 0.77 0.97 1.01 0.82 0.74 0.82 0.79 0.60 0.58
0.18 0.20 0.30 0.35 0.32 0.30 0.34 0.43 0.46 0.41 0.41 0.49 0.42 0.26 0.15 0.15 0.17 0.20 0.18 0.12 0.08 0.08 0.06 0.06 0.09 0.11 0.13 0.13 0.18 0.26 0.36 0.45 0.52 0.63 0.78 0.98 0.95 0.72 0.67 0.80 0.86 0.74 0.65
0.27 0.23 0.29 0.34 0.30 0.30 0.37 0.44 0.46 0.38 0.42 0.46 0.43 0.35 0.19 0.18 0.19 0.20 0.13 0.07 0.05 0.05 0.06 0.05 0.05 0.05 0.07 0.10 0.14 0.20 0.31 0.31 0.43 0.62 0.76 0.97 0.74 0.53 0.53 0.71 0.94 0.94 0.79
0.41 0.34 0.30 0.36 0.33 0.33 0.38 0.45 0.47 0.44 0.50 0.49 0.38 0.32 0.28 0.20 0.19 0.15 0.10 0.06 0.04 0.05 0.07 0.04 0.03 0.04 0.06 0.11 0.15 0.17 0.23 0.21 0.27 0.43 0.60 0.79 0.69 0.62 0.48 0.55 0.75 0.87 0.88
0.51 0.47 0.41 0.39 0.40 0.42 0.48 0.48 0.50 0.54 0.61 0.57 0.38 0.31 0.33 0.22 0.14 0.09 0.06 0.03 0.02 0.03 0.06 0.03 0.02 0.04 0.07 0.12 0.14 0.15 0.17 0.19 0.24 0.32 0.42 0.58 0.60 0.60 0.46 0.48 0.60 0.69 0.83
0.56 0.54 0.48 0.45 0.46 0.49 0.54 0.57 0.57 0.54 0.60 0.57 0.43 0.38 0.36 0.23 0.14 0.09 0.05 0.03 0.02 0.03 0.06 0.04 0.03 0.05 0.07 0.10 0.11 0.11 0.12 0.14 0.23 0.28 0.37 0.39 0.49 0.46 0.35 0.36 0.42 0.48 0.56
0.53 0.55 0.51 0.48 0.51 0.55 0.61 0.62 0.70 0.71 0.73 0.64 0.54 0.48 0.37 0.24 0.20 0.14 0.07 0.06 0.05 0.07 0.07 0.04 0.05 0.05 0.04 0.06 0.07 0.06 0.05 0.12 0.20 0.22 0.27 0.33 0.42 0.36 0.28 0.27 0.30 0.31 0.34
0.54 0.56 0.55 0.58 0.55 0.54 0.57 0.77 0.93 0.82 0.75 0.64 0.66 0.58 0.47 0.38 0.35 0.20 0.14 0.15 0.12 0.11 0.09 0.06 0.06 0.04 0.01 0.01 0.02 0.02 0.03 0.08 0.15 0.16 0.18 0.32 0.36 0.32 0.25 0.22 0.24 0.24 0.24
0.58 0.60 0.55 0.52 0.47 0.47 0.61 0.77 0.94 0.98 0.96 0.92 0.75 0.73 0.63 0.48 0.31 0.16 0.14 0.16 0.14 0.14 0.09 0.07 0.04 0.02 0.03 0.01 0.00 0.01 0.03 0.07 0.13 0.15 0.18 0.34 0.37 0.31 0.26 0.22 0.20 0.20 0.20
0.53 0.56 0.53 0.50 0.48 0.46 0.47 0.57 0.70 0.74 0.74 0.73 0.72 0.65 0.63 0.55 0.41 0.26 0.22 0.24 0.21 0.14 0.10 0.08 0.06 0.05 0.04 0.02 0.02 0.04 0.04 0.04 0.11 0.16 0.17 0.38 0.49 0.40 0.34 0.26 0.21 0.20 0.21
0.48 0.51 0.54 0.57 0.55 0.60 0.60 0.56 0.54 0.59 0.63 0.65 0.70 0.60 0.54 0.51 0.48 0.43 0.32 0.33 0.27 0.17 0.16 0.14 0.07 0.06 0.06 0.03 0.05 0.06 0.04 0.05 0.10 0.13 0.18 0.36 0.61 0.71 0.59 0.42 0.34 0.27 0.26
0.46 0.57 0.61 0.58 0.61 0.60 0.56 0.59 0.61 0.61 0.64 0.66 0.67 0.57 0.50 0.48 0.47 0.51 0.43 0.41 0.31 0.30 0.32 0.20 0.12 0.10 0.08 0.02 0.01 0.03 0.03 0.04 0.07 0.12 0.21 0.33 0.54 0.81 0.92 0.74 0.59 0.49 0.37
0.43 0.57 0.68 0.66 0.68 0.64 0.60 0.62 0.66 0.65 0.62 0.64 0.67 0.57 0.50 0.51 0.50 0.59 0.56 0.48 0.42 0.43 0.40 0.35 0.30 0.18 0.12 0.05 0.03 0.02 0.03 0.05 0.06 0.06 0.11 0.24 0.32 0.43 0.69 0.85 0.84 0.75 0.56
0.40 0.51 0.63 0.65 0.70 0.73 0.72 0.72 0.69 0.64 0.65 0.69 0.72 0.66 0.59 0.55 0.58 0.74 0.75 0.60 0.57 0.57 0.52 0.49 0.40 0.27 0.18 0.12 0.09 0.06 0.04 0.04 0.06 0.06 0.06 0.07 0.08 0.10 0.18 0.29 0.38 0.50 0.57
0.40 0.47 0.52 0.58 0.77 0.81 0.77 0.83 0.83 0.79 0.84 0.86 0.88 0.84 0.76 0.71 0.78 0.94 0.99 0.86 0.76 0.79 0.70 0.57 0.50 0.46 0.31 0.25 0.18 0.15 0.09 0.06 0.05 0.05 0.05 0.05 0.04 0.04 0.07 0.08 0.12 0.17 0.29
0.34 0.39 0.46 0.54 0.67 0.78 0.93 1.01 1.09 1.10 1.09 1.20 1.26 1.24 1.07 0.99 1.04 1.17 1.25 1.21 1.12 1.11 1.03 0.83 0.78 0.71 0.60 0.53 0.38 0.28 0.18 0.13 0.10 0.07 0.08 0.08 0.06 0.03 0.04 0.03 0.06 0.06 0.09
0.25 0.30 0.37 0.53 0.68 0.83 0.96 1.10 1.35 1.52 1.61 1.58 1.59 1.67 1.57 1.37 1.43 1.51 1.45 1.67 1.70 1.61 1.53 1.39 1.33 1.24 0.96 0.70 0.82 0.78 0.46 0.26 0.19 0.16 0.13 0.09 0.08 0.06 0.05 0.04 0.05 0.04 0.04
0.15 0.22 0.29 0.44 0.66 0.89 1.11 1.30 1.50 1.80 1.94 1.94 2.00 1.95 1.90 1.77 1.77 1.68 1.71 1.89 1.92 1.98 2.03 1.78 1.75 1.71 1.38 0.99 1.17 1.37 0.94 0.62 0.32 0.21 0.18 0.14 0.13 0.12 0.11 0.08 0.07 0.04 0.03
0.09 0.14 0.21 0.34 0.55 0.86 1.16 1.41 1.60 1.83 2.08 2.17 2.07 2.02 2.06 2.14 2.16 2.04 1.97 2.05 2.04 2.08 2.21 2.19 2.05 2.01 1.85 1.49 1.31 1.42 1.24 1.01 0.74 0.32 0.24 0.23 0.23 0.21 0.20 0.17 0.14 0.11 0.08
0.10 0.13 0.17 0.31 0.47 0.70 0.98 1.29 1.52 1.78 2.07 2.14 2.12 2.09 2.12 2.23 2.30 2.26 2.21 2.24 2.20 2.11 2.15 2.21 2.16 2.23 2.30 1.98 1.66 1.36 1.13 1.07 1.01 0.66 0.38 0.31 0.35 0.35 0.31 0.23 0.19 0.18 0.16
0.15 0.18 0.24 0.38 0.52 0.72 0.97 1.28 1.57 1.76 1.91 2.07 2.08 2.00 1.93 1.96 1.98 1.98 2.09 2.21 2.19 2.15 2.12 2.25 2.33 2.42 2.33 2.17 1.94 1.77 1.59 1.35 1.01 0.93 0.80 0.55 0.44 0.39 0.41 0.37 0.32 0.28 0.22
0.24 0.30 0.37 0.49 0.70 0.86 0.96 1.10 1.23 1.44 1.71 1.82 1.91 1.94 1.92 1.87 1.75 1.71 1.81 1.90 1.97 1.99 1.99 1.99 2.09 2.20 2.26 2.30 2.13 1.89 1.77 1.62 1.46 1.31 0.99 0.77 0.67 0.51 0.45 0.42 0.40 0.40 0.37